Location: Hopville
(44.8032°N, 123.1329°W)
Time: 16:01:23
(UTC+00:00)

Cosmos 1072 Rocket - Pass Details

Date: 24 January 2021
Orbit: 949 x 1008 km, 82.9° (Epoch: 28 February)

Event Time Altitude Azimuth Distance (km) Brightness Sun altitude
Rises 13:23:51 0° 198° (SSW) 3,640 7.4 -24.0°
Reaches altitude 10° 13:26:22 10° 202° (SSW) 2,706 6.6 -23.5°
Maximum altitude 13:32:29 60° 282° (WNW) 1,120 4.4 -22.4°
Drops below altitude 10° 13:38:44 10° 2° (N) 2,765 6.8 -21.3°
Sets 13:41:21 0° 6° (N) 3,726 7.5 -20.9°
